User: anonymous   Login
Location: D�derode
(51.8092°N, 10.1065°E)
Time: 16:22:21
(UTC+00:00)
Language:

Cosmos 773 Rocket - Orbit

View from above orbital plane
View from above orbital plane
View from above satellite
View from above satellite

Ground track
Ground track

The orbit data is extracted from the following two-line orbital elements,

1  8344U 75094B   21063.49047368  .00000049  00000-0  24116-4 0  9998
2  8344  74.0575 146.2262 0020728  66.1771 294.1554 14.39173996380798
Epoch (UTC): 04 March 2021 11:46:16
Eccentricity: 0.0020728
inclination: 74.0575°
perigee height: 746 km
apogee height: 776 km
right ascension of ascending node: 146.2262°
argument of perigee: 66.1771°
revolutions per day: 14.39173996
mean anomaly at epoch: 294.1554°
orbit number at epoch: 38079

The dashed part of the orbit path shows where the satellite is in the earth's shadow,  

DLR